This demonstration page uses our WeatherBlox Daily Observations layout. Learn more.

Left ArrowRight Arrow

Hourly Observations for November 21, 2015

Temp ( °F °C ) Dew Point ( °F °C ) Humidity (%) Winds ( mph kmh ) Pressure ( in mb ) Visibility ( mi km ) Precip ( " mm )
12:53 am 00:53 Clear 43 6.1 40 4.4 89 89 Calm 30.13 1020 10 16 0.00 0.00
1:53 am 01:53 Clear 52 11.1 41 5 66 66 E 6 9 30.11 1020 10 16 0.00 0.00
2:53 am 02:53 Clear 47 8.3 39 3.9 74 74 Calm 30.12 1020 10 16 0.00 0.00
3:53 am 03:53 Clear 49 9.4 37 2.8 64 64 ENE 6 9 30.11 1020 10 16 0.00 0.00
4:53 am 04:53 Clear 47 8.3 35 1.7 63 63 ENE 7 11 30.12 1020 10 16 0.00 0.00
5:53 am 05:53 Clear 46 7.8 34 1.1 63 63 NE 6 9 30.12 1020 10 16 0.00 0.00
6:53 am 06:53 Clear 43 6.1 33 0.6 68 68 NE 7 11 30.12 1020 10 16 0.00 0.00
7:53 am 07:53 Sunny 45 7.2 33 0.6 63 63 NE 5 7 30.13 1020 10 16 0.00 0.00
8:53 am 08:53 Sunny 50 10 34 1.1 54 54 NE 8 13 30.14 1021 10 16 0.00 0.00
9:53 am 09:53 Cloudy 53 11.7 36 2.2 52 52 E 7 11 30.13 1020 10 16 0.00 0.00
10:53 am 10:53 Cloudy 54 12.2 38 3.3 55 55 E 8 13 30.12 1020 10 16 0.00 0.00
11:53 am 11:53 Cloudy 54 12.2 39 3.9 57 57 E 7 11 30.09 1019 10 16 0.00 0.00
12:53 pm 12:53 Cloudy 56 13.3 42 5.6 60 60 VRB 7 11 30.04 1017 10 16 0.00 0.00
1:53 pm 13:53 Cloudy 56 13.3 43 6.1 62 62 ESE 7 11 29.99 1016 10 16 0.00 0.00
2:53 pm 14:53 Cloudy 57 13.9 45 7.2 64 64 ESE 5 7 29.98 1015 10 16 0.00 0.00
3:53 pm 15:53 Cloudy 57 13.9 46 7.8 67 67 ESE 3 6 29.98 1015 10 16 0.00 0.00
4:53 pm 16:53 Cloudy 57 13.9 46 7.8 67 67 ESE 6 9 29.99 1016 10 16 0.00 0.00
5:53 pm 17:53 Cloudy 56 13.3 46 7.8 70 70 E 3 6 30.01 1016 10 16 0.00 0.00
6:53 pm 18:53 Cloudy 53 11.7 47 8.3 80 80 Calm 30.00 1016 10 16 0.00 0.00
7:53 pm 19:53 Mostly Clear 53 11.7 46 7.8 77 77 Calm 30.00 1016 10 16 0.00 0.00
8:53 pm 20:53 Mostly Clear 51 10.6 47 8.3 86 86 Calm 30.00 1016 10 16 0.00 0.00
9:53 pm 21:53 Mostly Cloudy 50 10 46 7.8 86 86 Calm 30.00 1016 10 16 0.00 0.00
10:26 pm 22:26 Cloudy 50 10 46 8 88 88 Calm 30.03 1017 10 16 0.00 0.00
10:53 pm 22:53 Cloudy 50 10 47 8.3 89 89 Calm 30.01 1016 10 16 0.00 0.00
11:53 pm 23:53 Cloudy 52 11.1 46 7.8 80 80 NNW 3 6 30.01 1016 10 16 0.00 0.00

Powered by AerisWeather